[[{"header":{"parameterUnit":"m.s-1","parameterCategory":1,"la1":30.2991,"la2":30.254,"lo1":-89.0895,"lo2":-89.0444,"dy":0.0017,"dx":0.0017,"nx":28,"ny":28,"refTime":"2023-11-14T03:00:00:Z","depth":0,"parameterNumber":2,"parameterNumberName":"U-component_of_WINDS"},"data":[0,0,0,0,0,0,0,0,0,0,0,0,0,0,0,0,0,0,0,0,0,0,0,0,0,0,0,0,0,0,0,0,0,0,0,0,0,0,0,0,0,0,0,0,0,0,0,0,0,0,0,0,0,0,0,0,0,0,-6.8421,-6.8423,0,-6.8618,-6.862,-6.8622,-6.8518,-6.8512,-6.8507,-6.8502,-6.8706,-6.8716,-6.8726,0,0,0,0,0,0,0,0,0,0,0,0,0,-6.7954,-6.7963,-6.842,-6.8423,-6.8425,-6.8618,-6.862,-6.8623,-6.8518,-6.8512,-6.8505,-6.8499,-6.8702,-6.8715,-6.8727,0,0,0,0,0,0,0,0,0,0,0,0,0,-6.8154,-6.7966,-6.842,-6.8396,-6.8396,-6.8617,-6.862,-6.8624,-6.852,-6.8512,-6.8504,-6.8496,-6.8698,-6.8713,-6.8729,-6.8985,0,0,-6.8776,-6.8783,0,0,0,0,0,0,0,0,-6.8143,-6.8172,-6.8397,-6.8398,-6.8398,-6.8535,-6.853,-6.8745,-6.8522,-6.8473,-6.8502,-6.8492,-6.8655,-6.8674,-6.8729,-6.8994,-6.9003,-6.8778,-6.8787,-6.8794,-6.8798,0,0,0,0,0,0,0,-6.8129,-6.8163,-6.8498,-6.8401,-6.8401,-6.8376,-6.8396,-6.8571,-6.8607,-6.8477,-6.8469,-6.8494,-6.8654,-6.8714,-6.8733,-6.9006,-6.8777,-6.8791,-6.8801,-6.8807,-6.9493,-6.9502,0,0,0,0,0,0,-6.8117,-6.8152,-6.8492,-6.8504,-6.8248,-6.8391,-6.8413,-6.8499,-6.8604,-6.8613,-6.8501,-6.8488,-6.8691,-6.8715,-6.8739,-6.9048,-6.8794,-6.8808,-6.8817,-6.9485,-6.9495,-6.9505,0,0,0,0,0,0,-6.8107,-6.8148,-6.8484,-6.8326,-6.8367,-6.8408,-6.8505,-6.8507,-6.8567,-6.8623,-6.8629,-6.8555,-6.8686,-6.8718,-6.8925,-6.9054,-6.8815,-6.883,-6.9474,-6.9488,-6.95,-6.9666,0,0,0,0,0,0,-6.8094,-6.8145,-6.8243,-6.8329,-6.8376,-6.8667,-6.8513,-6.8517,-6.8594,-6.858,-6.8675,-6.8683,-6.8682,-6.8902,-6.894,-6.9071,-6.8842,-6.9463,-6.948,-6.9496,-6.965,-6.9684,-6.9713,0,0,0,0,0,-6.8078,-6.8282,-6.8248,-6.829,-6.8499,-6.8674,-6.8701,-6.8695,-6.8605,-6.8703,-6.8739,-6.868,-6.9033,-6.8924,-6.8966,-6.9103,-6.9455,-6.9475,-6.9495,-6.9635,-6.9677,-6.9712,0,0,0,0,0,0,-6.821,-6.8292,-6.8256,-6.8494,-6.8578,-6.8656,-6.878,-6.8739,-6.885,-6.8832,-6.882,-6.8842,-6.9059,-6.9101,-6.8979,-6.9357,-6.923,-6.9259,-6.9322,-6.9362,-6.9393,-6.938,-6.8855,0,0,0,0,0,-6.8266,-6.8401,-6.8466,-6.867,-6.8714,-6.874,-6.8816,-6.8804,-6.8891,-6.8926,-6.8977,-6.9063,-6.9193,-6.928,-6.9402,-6.9654,-6.9674,-6.9769,-6.98,-6.9826,-6.9853,-6.9991,-7.0034,-6.9571,-6.957,-6.957,0,0,-6.8385,-6.8447,-6.8533,-6.8698,-6.8762,-6.8903,-6.8771,-6.8925,-6.903,-6.8949,-6.9149,-6.9189,-6.9285,-6.9516,-6.9621,-6.9558,-6.9985,-6.9852,-6.9872,-6.9885,-7.0016,-7.006,-7.0099,-6.9584,-6.9582,-6.958,0,0,-6.8674,-6.8733,-6.8911,-6.8977,-6.9074,-6.9091,-6.9133,-6.9218,-6.9242,-6.9441,-6.9384,-6.9508,-6.9732,-6.9804,-6.9869,-7.0185,-7.0136,-7.0225,-7.0392,-7.0527,-7.0563,-7.0596,-7.0711,-7.0752,-7.0251,-7.0251,-7.0252,0,-6.881,-6.902,-6.9007,-6.9167,-6.9242,-6.9174,-6.9354,-6.9418,-6.9552,-6.9605,-6.9533,-6.9814,-6.9873,-7.0121,-7.0198,-7.0253,-7.0302,-7.0216,-7.0559,-7.0591,-7.0621,-7.0731,-7.0774,-7.0262,-7.026,-7.0259,-7.0258,0,-6.9183,-6.9329,-6.946,-6.9591,-6.968,-6.9849,-6.9863,-6.9955,-6.9934,-6.9958,-7.0163,-7.0232,-7.0368,-7.0425,-7.0407,-7.0672,-7.063,-7.0559,-7.0431,-7.0676,-7.0779,-7.0821,-7.0277,-7.0273,-7.027,-7.0267,0,0,-6.9563,-6.9683,-6.9732,-6.9791,-6.9893,-7.0007,-7.0173,-7.0305,-7.0386,-7.0479,-7.0619,-7.081,-7.0745,-7.082,-7.0808,-7.0926,-7.1175,-7.0841,-7.0843,-7.0903,-7.1473,-7.1529,-7.1577,-7.1142,-7.115,-7.1156,-7.1466,0,-6.986,-7.0151,-7.0144,-7.0415,-7.0551,-7.0488,-7.0633,-7.0712,-7.0739,-7.0858,-7.0887,-7.1024,-7.0926,-7.0971,-7.1085,-7.1121,-7.129,-7.1098,-7.1274,-7.1281,-7.1255,-7.1631,-7.169,-7.1979,-7.1506,-7.1513,-7.1518,0,-7.0247,-7.0354,-7.0639,-7.0722,-7.0779,-7.0909,-7.1031,-7.1146,-7.1234,-7.1245,-7.1329,-7.1299,-7.1468,-7.1333,-7.1568,-7.1437,-7.1508,-7.1537,-7.1548,-7.1567,-7.1416,-7.1662,-7.2071,-7.2116,-7.158,-7.1575,-7.1571,0,-7.05,-7.0714,-7.0912,-7.0964,-7.1066,-7.1159,-7.1206,-7.1286,-7.1367,-7.1473,-7.1525,-7.165,-7.1719,-7.1816,-7.1822,-7.1722,-7.2059,-7.1924,-7.2075,-7.2075,-7.2151,-7.2147,-7.258,-7.2192,-7.2192,-7.2191,-7.219,0,-7.0835,-7.1012,-7.1027,-7.115,-7.1346,-7.1336,-7.1531,-7.1569,-7.1641,-7.177,-7.1722,-7.1845,-7.1842,-7.1967,-7.1972,-7.2167,-7.2197,-7.2212,-7.2212,-7.2219,-7.2217,-7.2267,-7.2248,-7.2202,-7.22,-7.2197,-7.2195,0,-7.1151,-7.1168,-7.138,-7.1459,-7.1482,-7.1624,-7.1692,-7.1809,-7.183,-7.1994,-7.2032,-7.2066,-7.2211,-7.2224,-7.2392,-7.2395,-7.2631,-7.2608,-7.2602,-7.2599,-7.275,-7.2737,-7.3233,-7.3299,-7.2866,-7.287,-7.2873,0,-7.1365,-7.15,-7.1593,-7.1676,-7.1728,-7.1862,-7.1944,-7.1939,-7.2027,-7.2138,-7.2242,-7.2381,-7.2493,-7.2726,-7.2767,-7.2895,-7.2876,-7.3041,-7.2895,-7.2898,-7.2882,-7.2875,-7.289,-7.307,-7.3075,-7.3079,-7.3082,0,-7.1745,-7.1747,-7.1867,-7.1991,-7.209,-7.2187,-7.2278,-7.2348,-7.2355,-7.2456,-7.2602,-7.2689,-7.286,-7.3,-7.3126,-7.3174,-7.3131,-7.3127,-7.3169,-7.3179,-7.3171,-7.318,-7.2682,-7.3117,-7.3113,-7.3111,-7.3109,-7.3107,-7.2019,-7.2136,-7.2221,-7.2356,-7.2424,-7.251,-7.2624,-7.266,-7.2782,-7.2921,-7.291,-7.3073,-7.3158,-7.3323,-7.338,-7.3508,-7.3453,-7.3514,-7.353,-7.3546,-7.3562,-7.3148,-7.3531,-7.353,-7.3529,-7.3528,-7.3527,0,-7.2399,-7.2449,-7.2574,-7.2703,-7.281,-7.2757,-7.2855,-7.2949,-7.3093,-7.3175,-7.3286,-7.3456,-7.3591,-7.3642,-7.3774,-7.3867,-7.3851,-7.3902,-7.3897,-7.3909,-7.3603,-7.3554,-7.3913,-7.3913,-7.3913,-7.3913,-7.3913,-7.3913,-7.2609,-7.2806,-7.2817,-7.3048,-7.3097,-7.3256,-7.3317,-7.3396,-7.3462,-7.3654,-7.3766,-7.3798,-7.3868,-7.4005,-7.4128,-7.4139,-7.4191,-7.4252,-7.4256,-7.3969,-7.393,-7.3893,-7.3848,-7.4263,-7.4263,-7.4552,-7.4554,-7.4556]},{"header":{"parameterUnit":"m.s-1","parameterCategory":1,"la1":30.2991,"la2":30.254,"lo1":-89.0895,"lo2":-89.0444,"dy":0.0017,"dx":0.0017,"nx":28,"ny":28,"refTime":"2023-11-14T03:00:00:Z","depth":0,"parameterNumber":3,"parameterNumberName":"V-component_of_WINDS"},"data":[0,0,0,0,0,0,0,0,0,0,0,0,0,0,0,0,0,0,0,0,0,0,0,0,0,0,0,0,0,0,0,0,0,0,0,0,0,0,0,0,0,0,0,0,0,0,0,0,0,0,0,0,0,0,0,0,0,0,-5.9218,-5.9218,0,-5.9204,-5.9204,-5.9204,-5.91,-5.9097,-5.9095,-5.9092,-5.9079,-5.9081,-5.9083,0,0,0,0,0,0,0,0,0,0,0,0,0,-5.9155,-5.9157,-5.9218,-5.9218,-5.9218,-5.9204,-5.9204,-5.9204,-5.91,-5.9097,-5.9094,-5.9091,-5.9079,-5.9081,-5.9084,0,0,0,0,0,0,0,0,0,0,0,0,0,-5.9166,-5.9157,-5.9218,-5.9164,-5.9159,-5.9204,-5.9204,-5.9204,-5.9101,-5.9097,-5.9093,-5.909,-5.9078,-5.9081,-5.9084,-5.9179,0,0,-5.9093,-5.9095,0,0,0,0,0,0,0,0,-5.9165,-5.9168,-5.9172,-5.9168,-5.9163,-5.915,-5.9177,-5.9196,-5.9102,-5.9123,-5.9092,-5.9088,-5.9106,-5.9106,-5.9112,-5.9179,-5.9178,-5.9094,-5.9095,-5.9097,-5.9098,0,0,0,0,0,0,0,-5.9165,-5.9168,-5.9212,-5.9173,-5.9167,-5.9141,-5.9138,-5.918,-5.9136,-5.9121,-5.9113,-5.9113,-5.9103,-5.911,-5.9111,-5.9178,-5.9093,-5.9096,-5.9098,-5.9099,-5.9321,-5.9324,0,0,0,0,0,0,-5.9171,-5.9168,-5.9213,-5.9212,-5.9155,-5.9145,-5.9142,-5.9158,-5.9136,-5.9128,-5.9116,-5.9108,-5.9106,-5.9108,-5.911,-5.9219,-5.9097,-5.91,-5.9101,-5.9317,-5.9321,-5.9326,0,0,0,0,0,0,-5.917,-5.9176,-5.9213,-5.9188,-5.9191,-5.915,-5.9169,-5.916,-5.9166,-5.9132,-5.9124,-5.9132,-5.9103,-5.9106,-5.9163,-5.9218,-5.9101,-5.9104,-5.9312,-5.9318,-5.9324,-5.944,0,0,0,0,0,0,-5.9169,-5.9177,-5.9213,-5.919,-5.9193,-5.9266,-5.9172,-5.9162,-5.9172,-5.9161,-5.9144,-5.9138,-5.9101,-5.9159,-5.9166,-5.922,-5.9106,-5.9307,-5.9315,-5.9322,-5.9431,-5.9449,-5.9465,0,0,0,0,0,-5.9167,-5.9247,-5.9215,-5.9221,-5.9237,-5.927,-5.9271,-5.9227,-5.9177,-5.9212,-5.919,-5.9138,-5.9211,-5.9165,-5.9172,-5.9228,-5.9303,-5.9312,-5.9321,-5.9423,-5.9445,-5.9464,0,0,0,0,0,0,-5.9278,-5.9243,-5.9207,-5.9282,-5.9279,-5.9252,-5.9296,-5.9252,-5.9264,-5.9254,-5.9198,-5.9195,-5.926,-5.9249,-5.92,-5.9319,-5.9248,-5.9259,-5.9323,-5.9344,-5.936,-5.9361,-5.9109,0,0,0,0,0,-5.9311,-5.934,-5.9308,-5.9377,-5.9377,-5.9337,-5.935,-5.9315,-5.9311,-5.9309,-5.9291,-5.9289,-5.9311,-5.9327,-5.9345,-5.9429,-5.9423,-5.9471,-5.9488,-5.9502,-5.9512,-5.9554,-5.9574,-5.9356,-5.9356,-5.9355,0,0,-5.938,-5.9364,-5.9386,-5.9398,-5.9393,-5.9424,-5.9337,-5.9374,-5.9397,-5.9315,-5.9367,-5.9354,-5.9348,-5.9418,-5.9448,-5.9411,-5.9571,-5.9513,-5.9525,-5.9527,-5.9565,-5.9586,-5.9605,-5.9362,-5.9361,-5.936,0,0,-5.952,-5.9512,-5.9567,-5.9563,-5.9555,-5.9527,-5.9541,-5.952,-5.9508,-5.9558,-5.9497,-5.9524,-5.9563,-5.9561,-5.9565,-5.9704,-5.9656,-5.9712,-5.98,-5.9842,-5.9859,-5.9874,-5.9922,-5.9941,-5.9722,-5.9722,-5.9722,0,-5.9607,-5.9652,-5.9602,-5.9643,-5.9649,-5.9576,-5.9631,-5.963,-5.9629,-5.9635,-5.9594,-5.9641,-5.9632,-5.97,-5.9734,-5.974,-5.9753,-5.9713,-5.986,-5.9875,-5.9888,-5.9934,-5.9952,-5.9729,-5.9728,-5.9727,-5.9727,0,-5.9758,-5.979,-5.9836,-5.9835,-5.9847,-5.9895,-5.9852,-5.987,-5.9835,-5.9812,-5.9864,-5.985,-5.9864,-5.9878,-5.9844,-5.9941,-5.9918,-5.987,-5.9797,-5.9916,-5.9958,-5.9976,-5.9738,-5.9736,-5.9734,-5.9732,0,0,-5.9969,-5.9939,-5.9956,-5.9955,-5.994,-5.9963,-6.0008,-6.002,-6.0037,-6.0038,-6.0074,-6.0108,-6.0063,-6.0068,-6.0033,-6.007,-6.0179,-6.0016,-6.0015,-6.0046,-6.0284,-6.032,-6.0341,-6.0148,-6.0151,-6.0153,-6.0284,0,-6.0103,-6.0177,-6.0133,-6.0213,-6.0241,-6.0171,-6.021,-6.0205,-6.0184,-6.0205,-6.0182,-6.0207,-6.0146,-6.0148,-6.0181,-6.0159,-6.0226,-6.0149,-6.018,-6.0182,-6.0183,-6.0363,-6.0402,-6.0526,-6.0301,-6.0303,-6.0305,0,-6.0271,-6.0278,-6.0361,-6.0338,-6.0349,-6.0384,-6.0391,-6.0413,-6.0405,-6.0387,-6.0392,-6.0348,-6.039,-6.0319,-6.0375,-6.0324,-6.0334,-6.0325,-6.0329,-6.0329,-6.0251,-6.0369,-6.0565,-6.0584,-6.0331,-6.0329,-6.0327,0,-6.0415,-6.0446,-6.0498,-6.0499,-6.0475,-6.0502,-6.0493,-6.0481,-6.0492,-6.0498,-6.0504,-6.0516,-6.0523,-6.0533,-6.0493,-6.0445,-6.0555,-6.0481,-6.0541,-6.0542,-6.0567,-6.0566,-6.0767,-6.0575,-6.0575,-6.0575,-6.0574,0,-6.0569,-6.0623,-6.0563,-6.0596,-6.0653,-6.0601,-6.0659,-6.0643,-6.0634,-6.0662,-6.0603,-6.063,-6.0576,-6.0599,-6.0568,-6.0619,-6.0623,-6.0609,-6.06,-6.0614,-6.0616,-6.062,-6.061,-6.058,-6.0578,-6.0578,-6.0577,0,-6.0741,-6.0703,-6.0756,-6.0728,-6.0722,-6.0766,-6.0742,-6.0771,-6.0745,-6.0782,-6.0788,-6.0749,-6.0772,-6.0733,-6.0752,-6.0731,-6.0802,-6.078,-6.0804,-6.0797,-6.086,-6.0855,-6.107,-6.1096,-6.0888,-6.089,-6.0892,0,-6.0842,-6.0881,-6.0856,-6.087,-6.0865,-6.0889,-6.0898,-6.0848,-6.0861,-6.0855,-6.0884,-6.0902,-6.0914,-6.0954,-6.0928,-6.0942,-6.0919,-6.0994,-6.0921,-6.0934,-6.092,-6.0918,-6.0921,-6.1009,-6.1012,-6.1014,-6.1015,0,-6.1024,-6.1003,-6.1018,-6.1027,-6.104,-6.1045,-6.1045,-6.1061,-6.1008,-6.1025,-6.1047,-6.1056,-6.1075,-6.1093,-6.11,-6.1091,-6.1045,-6.1039,-6.1053,-6.1067,-6.108,-6.1073,-6.0844,-6.1034,-6.1032,-6.1031,-6.103,-6.1029,-6.1163,-6.1193,-6.1181,-6.12,-6.1194,-6.1196,-6.1221,-6.1199,-6.1216,-6.1226,-6.1196,-6.1226,-6.1216,-6.1221,-6.1217,-6.124,-6.1207,-6.1228,-6.1233,-6.1239,-6.1249,-6.1077,-6.1241,-6.124,-6.124,-6.1239,-6.1239,0,-6.1342,-6.1329,-6.1347,-6.1349,-6.1364,-6.1317,-6.1315,-6.1331,-6.1357,-6.1352,-6.1364,-6.1389,-6.1407,-6.1381,-6.1394,-6.1417,-6.1396,-6.1422,-6.142,-6.1418,-6.1278,-6.1264,-6.1439,-6.1439,-6.1439,-6.1439,-6.1439,-6.1439,-6.1436,-6.1485,-6.1463,-6.1508,-6.1496,-6.1523,-6.1526,-6.1527,-6.1522,-6.1553,-6.1566,-6.1549,-6.1536,-6.1547,-6.1561,-6.1553,-6.156,-6.1594,-6.1579,-6.1448,-6.1429,-6.141,-6.1396,-6.1596,-6.1597,-6.1717,-6.1718,-6.1719]}]]